Kokomo, IN

2:32 PM EST on January 17, 2018 (GMT -0500)
Kokomo Municipal

Weather History for KOKK - January, 2012

Change the Weather History Date:

Monday, January 30, 2012

  Actual Average (KGUS) Record (KGUS)
Temperature  
Mean Temperature 37 °F -  
Max Temperature 51 °F 31 °F 61 °F (2013)
Min Temperature 23 °F 19 °F -5 °F (2004)
Degree Days  
Heating Degree Days 28    
Moisture  
Dew Point 23 °F    
Average Humidity 58    
Maximum Humidity 69    
Minimum Humidity 50    
Precipitation  
Precipitation 0.00 in - - ()
Sea Level Pressure  
Sea Level Pressure 30.08 in    
Wind  
Wind Speed 12 mph (South)    
Max Wind Speed 23 mph    
Max Gust Speed 31 mph    
Visibility 10 miles    
Events      
Averages and records for this station are not official NWS values.
T = Trace of Precipitation, MM = Missing Value Source: NWS Daily Summary

Daily Weather History Graph

Daily Weather History Graph

Search for Another Location

Airport or City:

Trip Planner

Search our weather history database for the weather conditions in past years. The results will help you decide how hot, cold, wet, or windy it might be!

Date:

Astronomy

Jan. 30, 2012 Rise Set
Actual Time 6:56 AM CST 4:59 PM CST
Civil Twilight 6:27 AM CST 5:28 PM CST
Nautical Twilight 5:54 AM CST 6:01 PM CST
Astronomical Twilight 5:22 AM CST 6:33 PM CST
Moon 10:16 AM CST (1/30) No Moon Set
Length of Visible Light 11h 01m
Length of Day
10h 03m
Waxing Crescent, 46% of the Moon is Illuminated
Jan 30
Waxing Crescent
Jan 30
First Quarter
Feb 7
Full
Feb 14
Last Quarter
Feb 21
New

Hourly Weather History & Observations

Time (CST) Temp. Windchill Dew Point Humidity Pressure Visibility Wind Dir Wind Speed Gust Speed Precip Events Conditions
12:35 AM 23.0 °F 15.8 °F 12.2 °F 63% 30.23 in 10.0 mi South 5.8 mph - N/A   Clear
12:55 AM 23.0 °F 17.0 °F 14.0 °F 68% 30.23 in 10.0 mi SSW 4.6 mph - N/A   Clear
1:15 AM 23.0 °F 17.0 °F 14.0 °F 68% 30.24 in 10.0 mi South 4.6 mph - N/A   Clear
1:35 AM 23.0 °F 15.8 °F 14.0 °F 68% 30.23 in 10.0 mi South 5.8 mph - N/A   Partly Cloudy
1:55 AM 24.8 °F 16.9 °F 15.8 °F 69% 30.23 in 10.0 mi South 6.9 mph - N/A   Scattered Clouds
2:15 AM 26.6 °F 20.0 °F 15.8 °F 64% 30.23 in 10.0 mi South 5.8 mph - N/A   Overcast
2:35 AM 26.6 °F 19.1 °F 15.8 °F 64% 30.24 in 10.0 mi South 6.9 mph - N/A   Overcast
2:55 AM 26.6 °F 20.0 °F 17.6 °F 69% 30.21 in 10.0 mi SE 5.8 mph - N/A   Overcast
3:15 AM 26.6 °F 18.2 °F 17.6 °F 69% 30.20 in 10.0 mi SE 8.1 mph - N/A   Overcast
3:35 AM 26.6 °F 18.2 °F 17.6 °F 69% 30.21 in 10.0 mi South 8.1 mph - N/A   Overcast
3:55 AM 26.6 °F 19.1 °F 17.6 °F 69% 30.20 in 10.0 mi South 6.9 mph - N/A   Overcast
4:15 AM 28.4 °F 19.7 °F 17.6 °F 64% 30.20 in 10.0 mi South 9.2 mph - N/A   Overcast
4:35 AM 28.4 °F 19.1 °F 17.6 °F 64% 30.19 in 10.0 mi South 10.4 mph - N/A   Overcast
4:55 AM 28.4 °F 18.5 °F 17.6 °F 64% 30.18 in 10.0 mi South 11.5 mph - N/A   Overcast
5:15 AM 28.4 °F 18.5 °F 17.6 °F 64% 30.18 in 10.0 mi SSE 11.5 mph - N/A   Overcast
5:35 AM 28.4 °F 18.0 °F 17.6 °F 64% 30.17 in 10.0 mi South 12.7 mph - N/A   Overcast
5:55 AM 28.4 °F 19.1 °F 17.6 °F 64% 30.17 in 10.0 mi SSE 10.4 mph - N/A   Overcast
6:15 AM 28.4 °F 18.5 °F 17.6 °F 64% 30.16 in 10.0 mi SSE 11.5 mph - N/A   Overcast
6:35 AM 28.4 °F 18.0 °F 17.6 °F 64% 30.16 in 10.0 mi SSE 12.7 mph - N/A   Overcast
6:55 AM 30.2 °F 19.8 °F 17.6 °F 60% 30.15 in 10.0 mi South 13.8 mph - N/A   Overcast
7:15 AM 30.2 °F 18.9 °F 17.6 °F 60% 30.15 in 10.0 mi South 16.1 mph 21.9 mph N/A   Overcast
7:35 AM 30.2 °F 18.1 °F 17.6 °F 60% 30.14 in 10.0 mi South 18.4 mph 23.0 mph N/A   Overcast
7:55 AM 30.2 °F 18.5 °F 17.6 °F 60% 30.13 in 10.0 mi South 17.3 mph 23.0 mph N/A   Overcast
8:15 AM 32.0 °F 20.1 °F 17.6 °F 55% 30.12 in 10.0 mi South 19.6 mph 24.2 mph N/A   Overcast
8:35 AM 32.0 °F 20.5 °F 17.6 °F 55% 30.11 in 10.0 mi South 18.4 mph 25.3 mph N/A   Overcast
8:55 AM 33.8 °F 23.5 °F 17.6 °F 52% 30.11 in 10.0 mi South 16.1 mph 24.2 mph N/A   Overcast
9:15 AM 33.8 °F 23.5 °F 19.4 °F 56% 30.11 in 10.0 mi South 16.1 mph - N/A   Overcast
9:35 AM 33.8 °F 23.9 °F 19.4 °F 56% 30.10 in 10.0 mi South 15.0 mph - N/A   Overcast
10:15 AM 35.6 °F 26.2 °F 21.2 °F 56% 30.10 in 10.0 mi South 15.0 mph 20.7 mph N/A   Overcast
10:35 AM 37.4 °F 28.5 °F 21.2 °F 52% 30.08 in 10.0 mi South 15.0 mph 20.7 mph N/A   Mostly Cloudy
10:55 AM 37.4 °F 28.5 °F 23.0 °F 56% 30.07 in 10.0 mi South 15.0 mph - N/A   Partly Cloudy
11:15 AM 39.2 °F 30.5 °F 24.8 °F 56% 30.06 in 10.0 mi South 16.1 mph - N/A   Partly Cloudy
11:35 AM 39.2 °F 30.5 °F 24.8 °F 56% 30.05 in 10.0 mi SSW 16.1 mph 19.6 mph N/A   Partly Cloudy
11:55 AM 42.8 °F 35.4 °F 26.6 °F 53% 30.04 in 10.0 mi SSW 15.0 mph 20.7 mph N/A   Scattered Clouds
12:15 PM 42.8 °F 34.8 °F 26.6 °F 53% 30.03 in 10.0 mi SSW 17.3 mph 23.0 mph N/A   Scattered Clouds
12:35 PM 42.8 °F 35.4 °F 26.6 °F 53% 30.01 in 10.0 mi SSW 15.0 mph 23.0 mph N/A   Scattered Clouds
12:55 PM 44.6 °F 37.4 °F 28.4 °F 53% 30.00 in 10.0 mi SSW 16.1 mph - N/A   Clear
1:15 PM 44.6 °F 36.9 °F 28.4 °F 53% 29.99 in 10.0 mi SSW 18.4 mph 24.2 mph N/A   Clear
1:35 PM 44.6 °F 37.4 °F 30.2 °F 57% 29.98 in 10.0 mi SSW 16.1 mph - N/A   Scattered Clouds
2:15 PM 48.2 °F - 30.2 °F 50% 29.96 in 10.0 mi SSW 17.3 mph 26.5 mph N/A   Partly Cloudy
2:35 PM 50.0 °F - 33.8 °F 54% 29.96 in 10.0 mi SSW 18.4 mph 27.6 mph N/A   Clear
2:55 PM 50.0 °F - 33.8 °F 54% 29.95 in 10.0 mi SSW 19.6 mph 26.5 mph N/A   Clear
3:15 PM 50.0 °F - 33.8 °F 54% 29.94 in 10.0 mi SSW 18.4 mph 27.6 mph N/A   Clear
3:35 PM 50.0 °F - 33.8 °F 54% 29.94 in 10.0 mi SSW 23.0 mph 27.6 mph N/A   Clear
3:55 PM 50.0 °F - 33.8 °F 54% 29.94 in 10.0 mi SSW 18.4 mph 26.5 mph N/A   Clear
4:15 PM 51.8 °F - 33.8 °F 50% 29.94 in 10.0 mi SSW 19.6 mph 26.5 mph N/A   Clear
4:35 PM 50.0 °F - 33.8 °F 54% 29.94 in 10.0 mi SW 18.4 mph 24.2 mph N/A   Clear
4:55 PM 48.2 °F - 30.2 °F 50% 29.95 in 10.0 mi SW 17.3 mph 20.7 mph N/A   Clear
5:15 PM 48.2 °F - 32.0 °F 54% 29.95 in 10.0 mi SSW 19.6 mph 23.0 mph N/A   Clear
5:35 PM 48.2 °F - 32.0 °F 54% 29.96 in 10.0 mi SSW 18.4 mph 27.6 mph N/A   Clear
5:55 PM 48.2 °F - 30.2 °F 50% 29.96 in 10.0 mi SSW 20.7 mph 26.5 mph N/A   Clear
6:35 PM 46.4 °F 39.0 °F 30.2 °F 53% 29.96 in 10.0 mi SSW 19.6 mph 29.9 mph N/A   Clear
6:55 PM 46.4 °F 39.5 °F 30.2 °F 53% 29.97 in 10.0 mi SSW 17.3 mph 27.6 mph N/A   Clear
7:15 PM 46.4 °F 38.3 °F 30.2 °F 53% 29.97 in 10.0 mi SSW 23.0 mph 27.6 mph N/A   Clear
7:35 PM 46.4 °F 39.0 °F 30.2 °F 53% 29.97 in 10.0 mi SW 19.6 mph 27.6 mph N/A   Clear
7:55 PM 46.4 °F 38.7 °F 30.2 °F 53% 29.97 in 10.0 mi SSW 20.7 mph 31.1 mph N/A   Clear
8:35 PM 48.2 °F - 30.2 °F 50% 29.97 in 10.0 mi SW 19.6 mph 29.9 mph N/A   Clear
8:55 PM 48.2 °F - 30.2 °F 50% 29.97 in 10.0 mi SSW 20.7 mph 27.6 mph N/A   Clear
9:15 PM 48.2 °F - 30.2 °F 50% 29.97 in 10.0 mi SW 21.9 mph 27.6 mph N/A   Clear
9:35 PM 46.4 °F 38.7 °F 30.2 °F 53% 29.97 in 10.0 mi SSW 20.7 mph 26.5 mph N/A   Clear
9:55 PM 48.2 °F - 30.2 °F 50% 29.97 in 10.0 mi SSW 19.6 mph 26.5 mph N/A   Clear
10:15 PM 48.2 °F - 30.2 °F 50% 29.97 in 10.0 mi SW 18.4 mph 27.6 mph N/A   Clear
10:55 PM 48.2 °F - 32.0 °F 54% 29.96 in 10.0 mi SW 20.7 mph 28.8 mph N/A   Clear
11:15 PM 48.2 °F - 32.0 °F 54% 29.96 in 10.0 mi SW 21.9 mph 32.2 mph N/A   Clear
11:55 PM 48.2 °F - 32.0 °F 54% 29.96 in 10.0 mi SW 23.0 mph 32.2 mph N/A   Clear